METEOR 2-17 DEB, 35370

Orbit data source: Space-Track

METEOR 2-17 DEB, 35370 is space debris in LEO originally from a launch on Sat, 30 Jan 1988 UTC launched from the Plesetsk Missile And Space Complex (PKMTR). Debris objects in space refer to the collection of defunct objects orbiting the Earth. Examples of debris include non-operational satellites, rocket bodies, and fragments generated from explosions, collisions, or faulty payload assembly.

Loading next visibility...
Identifier
35370, 1988-005AE
Orbit
LEO
Country
Flag of CISCIS
Related business
Manufacturer
Unknown
Mission
Spacecraft
Bus & Motor
Unknown
Mass
Unknown
Launch date (UTC)
1988-01-30 (38 years ago)
Launch vehicle
Unknown
Launch site
Plesetsk Missile And Space Complex (PKMTR)
Object type
Payload
Rocket body
Debris
Shape & HBR
Unknown
Radar Cross Section
Small (<0.1 m²)

Expand to show TLE details & history
Last TLE update: 3 days ago

TLE from 3 days ago
0 METEOR 2-17 DEB
1 35370U 88005AE  25259.36338025  .00003531  00000-0  23640-2 0  9991
2 35370  82.5229 121.6648 0028103   3.6828 118.5755 14.00456772926732
Epoch: 2025-09-16T08:43Z
TLE epoch observation values (Epoch: 2025-09-16T08:43:16.053Z)
Latitude
56.80121°
Longitude
163.78406°
Altitude
911.538 km
Speed
7.397 km/s
True Right ascension
19h 20m 37s
True Declination
56° 38' 48"
Sunlit
Object was in daylight at epoch
Visualization orbit readout
Latitude
Unknown
Longitude
Unknown
Altitude
Unknown
Speed
Unknown
Apparent Right ascension
Unknown
Apparent Declination
Unknown
Sunlit
N/A
Visualization observer readout
Local Sidereal Time
14:40:06
Azimuth
Unknown
Elevation
Unknown
Doppler factor
Unknown
Orbital elements
Apogee altitude
909.768 km
Perigee altitude
868.92 km
Semi-major axis
7,267.481 km
Eccentricity
0.00281
Inclination
82.5229°
RAAN
121.6648°
Arg. of periapsis
3.6828°
True anomaly
118.85783°
Mean anomaly
118.5755°
Eccentric anomaly
118.71671°
Mean motion
3.50322 °/min
Orbital period
102.76 mins
BSTAR
0.002364
Loading maneuver chart data...
Computing Atmospheric mass density...
Loading historical data...
Loading historical data...
Loading historical data...
Loading historical data...
Loading historical data...
Loading historical data...
Loading historical data...

Documentation

Showing up to 5 results
|